Home   Weather   Tsu   Past weeks

Flag for Japan Past Weather in Tsu, Japan — Yesterday and Last 2 Weeks

Now
60 °F

Cool.


Feels Like: 60 °F
Forecast: 51 / 64 °F
Wind: 2 mph from Southeast

Location: Tsu

Current Time: Apr 26, 2017 at 9:19:41 pm

Latest Report: Apr 26, 2017 at 8:00 pm


Visibility: N/A

Pressure: 29.87 "Hg

Humidity: 89%

Dew Point: 56 °F

Location of TsuLocation

Past Weather in Tsu — Graph

°F

Tsu Temperature Yesterday

Maximum temperature yesterday: 67 °F (at 12:00 pm)
Minimum temperature yesterday: 57 °F (at 6:00 am)
Average temperature yesterday: 61 °F

High & Low Weather Summary for the Past Weeks

 TemperatureHumidityPressure
High69 °F (Apr 16, 7:00 pm)92% (Apr 18, 12:00 am)30.35 "Hg (Apr 18, 12:00 am)
Low45 °F (Apr 13, 6:00 am)22% (Apr 23, 4:00 pm)29.29 "Hg (Apr 18, 2:00 am)
Average59 °F60%29.92 "Hg
* Reported Apr 11 7:00 pm — Apr 26 7:00 pm, Tsu, Weather by CustomWeather, © 2017

Note: Actual official high and low records may vary slightly from our data, if they occured in-between our weather recording intervals... More about our weather records

Advertising

Tsu Weather History for the Previous 24 Hours

Scroll right to see more
 ConditionsComfort  
Time TempWeatherWind HumidityBarometerVisibility
7:00 pm
Wed, Apr 26
60 °FCool.2 mph86%29.87 "HgN/A
6:00 pm60 °FCool.3 mph86%29.89 "HgN/A
5:00 pm61 °FCool.3 mph85%29.90 "HgN/A
4:00 pm61 °FCool.6 mph86%29.91 "HgN/A
3:00 pm62 °FSprinkles. Overcast.5 mph84%29.94 "Hg3 mi
2:00 pm62 °FCool.3 mph82%29.97 "HgN/A
1:00 pm62 °FCool.6 mph83%29.99 "HgN/A
12:00 pm62 °FCool.5 mph79%30.01 "HgN/A
11:00 am61 °FCool.3 mph78%30.02 "HgN/A
10:00 am61 °FCool.3 mph75%30.05 "HgN/A
9:00 am60 °FOvercast.2 mph75%30.06 "Hg6 mi
8:00 am60 °FCool.5 mph82%30.07 "HgN/A
7:00 am60 °FCool.3 mph77%30.10 "HgN/A
6:00 am59 °FCool.3 mph80%30.10 "HgN/A
5:00 am59 °FCool.3 mph83%30.11 "HgN/A
4:00 am59 °FCool.3 mph83%30.13 "HgN/A
3:00 am59 °FCool.2 mph81%30.14 "HgN/A
2:00 am59 °FCool.2 mph80%30.16 "HgN/A
1:00 am59 °FCool.2 mph79%30.20 "HgN/A
12:00 am60 °FCool.5 mph80%30.22 "HgN/A
11:00 pm
Tue, Apr 25
60 °FCool.8 mph78%30.22 "HgN/A
10:00 pm60 °FCool.9 mph75%30.24 "HgN/A
9:00 pm60 °FOvercast.9 mph75%30.24 "Hg19 mi
Weather by CustomWeather, © 2017

See weather overviewHow to use our weather pages